GSAT0216 (GALILEO 20)

Last updated on Wed Oct 29 2025 00:02:34 GMT+0000 (Coordinated Universal Time)

1 43056U 17079B 25301.02032741 .00000008 00000+0 00000+0 0 9998 2 43056 55.1481 227.8958 0003520 295.6180 64.3670 1.70473864 49049
UTC large
Height (km)
Speed (km/s)
/
Latitude / Longitude
Inclination (degrees)
Orbital Period (minutes)
Azimuth
Elevation
Range (km)
Doppler Factor

Next 0 passes for location: London (51.5072 / 0.1276)

Sorry there are no passes over London.